Regional Weather Roundup
Issued by NWS

Home | Current Version | Previous Version | Text Only | Print | Product List | Glossary Off
Versions: 1 2 3 4 5 6 7 8 9 10 11 12 13 14 15 16 17 18 19 20 21 22 23 24 25 26 27 28 29 30 31 32 33 34 35 36 37 38 39 40 41 42 43 44 45 46 47 48 49 50

000
ASUS45 KTFX 261010
RWRMT
MONTANA REGIONAL WEATHER ROUNDUP
NATIONAL WEATHER SERVICE GREAT FALLS MT
400 AM MDT TUE MAY 26 2015

NOTE: "FAIR" INDICATES FEW OR NO CLOUDS BELOW 12000 FEET WITH NO
SIGNIFICANT WEATHER AND/OR OBSTRUCTIONS TO VISIBILITY.

MTZ001>007-043-261100-
WEST OF THE DIVIDE

CITY           SKY/WX    TMP DP  RH WIND       PRES   REMARKS
KALISPELL      CLOUDY    50  48  93 CALM      29.94R
MISSOULA       CLEAR     41  39  93 CALM      29.98R
BUTTE          CLOUDY    47  43  86 CALM      29.99F
MULLAN PASS    CLOUDY    43  37  79 W3        29.98F
DEER LODGE       N/A     48  46  93 CALM      30.00S
EUREKA           N/A     52  50  93 CALM        N/A
HAMILTON         N/A     43  41  93 SE2       29.97R
LIBBY            N/A     46  45  93 CALM      29.96S
RONAN            N/A     42  40  93 CALM      30.00R
THOMPSON FALLS   N/A     46  45  97 CALM      30.00S
$$

MTZ008-052>055-261100-
SOUTHWEST MONTANA

CITY           SKY/WX    TMP DP  RH WIND       PRES   REMARKS
BOZEMAN        CLOUDY    50  47  89 NW3       29.97S
DILLON         CLOUDY    47  44  90 SW8       29.98F
W YELLOWSTONE  LGT RAIN  45  41  87 CALM      30.03S
THREE FORKS      N/A     51  23  33 CALM      29.97R
TWIN BRIDGES     N/A     48  43  83 SE6       29.98S
$$

MTZ009-010-012-014-046-048-049-054-261100-
EAST SLOPES AND CENTRAL MONTANA

CITY           SKY/WX    TMP DP  RH WIND       PRES   REMARKS
CUT BANK       CLOUDY    51  47  86 W7        29.91F
GREAT FALLS    LGT RAIN  51  49  92 S8        29.92R
MALMSTROM AFB  LGT RAIN  52  50  93 SW8       29.92R
HELENA         LGT RAIN  53  49  86 CALM      29.94S
CONRAD           N/A     52  52 100 SE6       29.94F
$$

MTZ011-013-016-021-045-047-050-051-261100-
NORTH CENTRAL MONTANA

CITY           SKY/WX    TMP DP  RH WIND       PRES   REMARKS
HAVRE          MOCLDY    52  46  80 SW7       29.89R
LEWISTOWN      CLOUDY    53  45  74 NW5       29.93R
N BAR RANCH    CLOUDY    48  45  87 CALM      29.95S
CHINOOK          N/A     48  45  87 CALM      29.89S
FORT BENTON      N/A     54  52  94 SW5       29.90R
$$

MTZ017>020-022>027-061-062-261100-
NORTHEAST MONTANA

CITY           SKY/WX    TMP DP  RH WIND       PRES   REMARKS
GLASGOW        CLEAR     51  45  79 E10       29.90R
JORDAN           N/A     45  44  97 E5        29.90S
SIDNEY         CLEAR     46  43  87 CALM      29.93F
WOLF POINT     CLEAR     44  41  89 CALM      29.92R
MALTA            N/A     47  41  80 CALM      29.86S
POPLAR           N/A     48  46  93 CALM      29.92S
SCOBEY           N/A     45  38  76 CALM      29.91R
$$

MTZ028>42-056>058-261100-
SOUTHCENTRAL AND SOUTHEAST MONTANA

CITY           SKY/WX    TMP DP  RH WIND       PRES   REMARKS
BAKER          CLOUDY    41  41 100 CALM      29.96S FOG
BILLINGS       PTCLDY    49  45  86 N3        29.90R
LIVINGSTON     PTCLDY    52  43  71 W7        29.94R
MILES CITY     CLEAR     50  49  96 SE9       29.91F
BIG TIMBER       N/A     52  45  76 W5        29.93S
EKALAKA          N/A     50  47  89 SE7       29.94S
FORSYTH          N/A     48  48 100 NE3       29.90S
LAUREL           N/A     48  40  74 CALM      29.90R
ROUNDUP          N/A     51  43  74 CALM      29.83S
$$

REGIONAL REPORTS...DAKOTAS

CITY           SKY/WX    TMP DP  RH WIND       PRES   REMARKS
WILLISTON      CLEAR     49  46  90 CALM      29.92S
MINOT          CLEAR     57  46  66 W12       29.85F
DICKINSON      CLEAR     46  44  93 W6        29.93R
BEACH          PTSUNNY   41  41 100 CALM      29.96S FOG
CROSBY         FAIR      54  54 100 SW9       29.90S
WATFORD CITY   FAIR      45  45 100 SW5       29.91F
BISMARCK       CLEAR     53  50  89 W7        29.90S
GRAND FORKS    CLEAR     53  49  86 S8        29.80S
FARGO          PTCLDY    52  48  86 S7        29.86R
BUFFALO SD       N/A     46  44  93 CALM      29.90R
RAPID CITY     CLOUDY    51  50  96 W5        29.96R
$$

REGIONAL REPORTS...WYOMING/IDAHO/WASHINGTON

CITY           SKY/WX    TMP DP  RH WIND       PRES   REMARKS
GILLETTE       CLEAR     42  41  96 CALM      29.95S
SHERIDAN       CLEAR     40  38  93 W3        29.93S
BUFFALO WY     CLEAR     46  39  76 SW6       29.95F
CODY           CLEAR     45  39  81 CALM      29.94R
YELLOWSTONE LA   N/A     34  33  96 CALM      30.09S
IDAHO FALLS    CLOUDY    50  45  83 SW6       29.97S
SALMON         MOCLDY    45  43  93 CALM      29.98S
BOISE          CLEAR     53  48  83 SE6       29.92R
SPOKANE        MOCLDY    53  50  89 W5        29.92S
$$

REGIONAL REPORTS...ALBERTA

CITY           SKY/WX    TMP DP  RH WIND       PRES   REMARKS
EDMONTON       CLEAR     55  39  54 NW6       29.89R
CALGARY        MOCLDY    55  39  54 SW5       29.93R
LETHBRIDGE     CLOUDY    50  46  87 SW6       29.88S
MEDICINE HAT   PTCLDY    52  41  66 S2        29.86S
$$

REGIONAL REPORTS...SASKATCHEWAN

CITY           SKY/WX    TMP DP  RH WIND       PRES   REMARKS
SWIFT CURRENT  CLEAR     52  45  76 S10       29.87S
REGINA         PTCLDY    52  43  71 W8        29.86R
$$


USA.gov is the U.S. government's official web portal to all federal, state and local government web resources and services.